TimeCDT,TemperatureF,Dew PointF,Humidity,Sea Level PressureIn,VisibilityMPH,Wind Direction,Wind SpeedMPH,Gust SpeedMPH,PrecipitationIn,Events,Conditions,WindDirDegrees,DateUTC
12:53 AM,70.0,63.0,78,30.01,10.0,South,4.6,-,N/A,,Clear,170,2013-07-07 05:53:00
1:53 AM,70.0,63.0,78,30.00,10.0,SE,6.9,-,N/A,,Clear,140,2013-07-07 06:53:00
2:53 AM,68.0,63.0,84,30.00,10.0,SE,9.2,-,N/A,,Clear,130,2013-07-07 07:53:00
3:53 AM,66.9,64.0,90,30.01,10.0,SE,3.5,-,N/A,,Clear,130,2013-07-07 08:53:00
4:53 AM,66.9,63.0,87,30.00,10.0,ESE,4.6,-,N/A,,Clear,120,2013-07-07 09:53:00
5:53 AM,66.9,64.0,90,30.01,10.0,ESE,5.8,-,N/A,,Clear,120,2013-07-07 10:53:00
6:53 AM,68.0,64.0,87,30.03,10.0,SE,4.6,-,N/A,,Clear,130,2013-07-07 11:53:00
7:53 AM,71.1,66.0,84,30.05,10.0,SE,5.8,-,N/A,,Clear,140,2013-07-07 12:53:00
8:53 AM,75.9,66.9,74,30.05,10.0,SE,8.1,-,N/A,,Clear,140,2013-07-07 13:53:00
9:53 AM,80.1,66.9,64,30.05,10.0,SSW,8.1,-,N/A,,Clear,200,2013-07-07 14:53:00
10:53 AM,82.9,66.9,58,30.06,10.0,Variable,5.8,-,N/A,,Clear,0,2013-07-07 15:53:00
11:53 AM,86.0,62.1,44,30.05,10.0,SSE,10.4,-,N/A,,Clear,150,2013-07-07 16:53:00
12:53 PM,87.1,63.0,44,30.04,10.0,SSE,5.8,18.4,N/A,,Clear,160,2013-07-07 17:53:00
1:53 PM,88.0,64.0,45,30.02,10.0,SE,9.2,-,N/A,,Clear,140,2013-07-07 18:53:00
2:53 PM,89.1,62.1,40,30.01,10.0,SSE,10.4,-,N/A,,Clear,160,2013-07-07 19:53:00
3:53 PM,90.0,62.1,39,30.00,10.0,South,10.4,17.3,N/A,,Partly Cloudy,170,2013-07-07 20:53:00
4:53 PM,90.0,63.0,40,29.99,10.0,SSE,11.5,-,N/A,,Mostly Cloudy,160,2013-07-07 21:53:00
5:53 PM,89.1,62.1,40,29.99,10.0,South,11.5,16.1,N/A,,Partly Cloudy,180,2013-07-07 22:53:00
6:53 PM,86.0,61.0,43,30.00,10.0,South,8.1,-,N/A,,Clear,180,2013-07-07 23:53:00
7:53 PM,82.9,62.1,49,30.01,10.0,South,4.6,-,N/A,,Clear,190,2013-07-08 00:53:00
8:53 PM,80.1,61.0,52,30.01,10.0,South,3.5,-,N/A,,Clear,190,2013-07-08 01:53:00
9:53 PM,78.1,61.0,56,30.03,10.0,SSW,3.5,-,N/A,,Clear,200,2013-07-08 02:53:00
10:53 PM,75.9,62.1,62,30.04,10.0,SSE,3.5,-,N/A,,Clear,150,2013-07-08 03:53:00
11:53 PM,73.9,64.0,71,30.05,10.0,Calm,Calm,-,N/A,,Clear,0,2013-07-08 04:53:00